Change the Weather History Date:

Monday, June 10, 2013

  Actual Average (KBPI) Record (KBPI)
Temperature  
Mean Temperature 65 °F 53 °F  
Max Temperature 86 °F 70 °F 90 °F (2013)
Min Temperature 44 °F 36 °F 16 °F (2002)
Degree Days  
Heating Degree Days 0 12  
Month to date heating degree days 131  
Since 1 June heating degree days 131  
Since 1 July heating degree days 10257  
Cooling Degree Days 0 0  
Month to date cooling degree days 0  
Year to date cooling degree days 0  
Since 1 June cooling degree days 0  
Growing Degree Days 15 (Base 50)    
Moisture  
Dew Point 33 °F    
Average Humidity 38    
Maximum Humidity 81    
Minimum Humidity 12    
Precipitation  
Precipitation 0.00 in 0.02 in 0.37 in (2004)
Month to date precipitation 0.29  
Year to date precipitation 2.76  
Sea Level Pressure  
Sea Level Pressure 30.05 in    
Wind  
Wind Speed 7 mph (West)    
Max Wind Speed 26 mph    
Max Gust Speed 37 mph    
Visibility 10 miles    
Events      
T = Trace of Precipitation, MM = Missing Value Source: NWS Daily Summary

Daily Weather History Graph

Daily Weather History Graph

Search for Another Location

Airport or City:

Trip Planner

Search our weather history database for the weather conditions in past years. The results will help you decide how hot, cold, wet, or windy it might be!

Date:

Astronomy

Jun. 10, 2013 Rise Set
Actual Time 5:40 AM MDT 8:57 PM MDT
Civil Twilight 5:05 AM MDT 9:32 PM MDT
Nautical Twilight 4:20 AM MDT 10:17 PM MDT
Astronomical Twilight 3:25 AM MDT 11:12 PM MDT
Moon 7:34 AM MDT (6/10) 10:23 PM MDT (6/10)
Length of Visible Light 16h 26m
Length of Day
15h 16m
Waxing Crescent, 4% of the Moon is Illuminated
Jun 10
Waxing Crescent
Jun 16
First Quarter
Jun 23
Full
Jun 29
Last Quarter
Jul 8
New

Hourly Weather History & Observations

Time (MDT) Temp. Windchill Dew Point Humidity Pressure Visibility Wind Dir Wind Speed Gust Speed Precip Events Conditions
12:15 AM 50.0 °F - 37.4 °F 62% 30.11 in 10.0 mi WSW 3.5 mph - N/A   Scattered Clouds
12:35 AM 50.0 °F - 35.6 °F 58% 30.11 in 10.0 mi WNW 3.5 mph - N/A   Clear
12:55 AM 50.0 °F - 37.4 °F 62% 30.11 in 10.0 mi NW 4.6 mph - N/A   Clear
1:15 AM 46.4 °F 43.5 °F 35.6 °F 66% 30.10 in 10.0 mi WNW 5.8 mph - N/A   Clear
1:35 AM 46.4 °F 45.2 °F 35.6 °F 66% 30.11 in 10.0 mi WNW 3.5 mph - N/A   Scattered Clouds
1:55 AM 50.0 °F - 37.4 °F 62% 30.11 in 10.0 mi NW 5.8 mph - N/A   Clear
2:15 AM 46.4 °F 44.3 °F 37.4 °F 71% 30.09 in 10.0 mi NW 4.6 mph - N/A   Scattered Clouds
2:35 AM 46.4 °F 42.9 °F 37.4 °F 71% 30.11 in 10.0 mi West 6.9 mph - N/A   Mostly Cloudy
2:55 AM 46.4 °F 44.3 °F 37.4 °F 71% 30.09 in 10.0 mi WSW 4.6 mph - N/A   Mostly Cloudy
3:15 AM 46.4 °F 44.3 °F 37.4 °F 71% 30.09 in 10.0 mi WNW 4.6 mph - N/A   Scattered Clouds
3:35 AM 46.4 °F 43.5 °F 37.4 °F 71% 30.08 in 10.0 mi WNW 5.8 mph - N/A   Clear
3:55 AM 46.4 °F 43.5 °F 37.4 °F 71% 30.08 in 10.0 mi NW 5.8 mph - N/A   Clear
4:15 AM 44.6 °F 41.4 °F 37.4 °F 76% 30.08 in 10.0 mi West 5.8 mph - N/A   Clear
4:35 AM 46.4 °F 43.5 °F 39.2 °F 76% 30.07 in 10.0 mi NW 5.8 mph - N/A   Clear
4:55 AM 46.4 °F 43.5 °F 39.2 °F 76% 30.07 in 10.0 mi NW 5.8 mph - N/A   Clear
5:15 AM 44.6 °F 42.2 °F 39.2 °F 81% 30.07 in 10.0 mi West 4.6 mph - N/A   Clear
5:35 AM 44.6 °F 40.7 °F 39.2 °F 81% 30.07 in 10.0 mi West 6.9 mph - N/A   Scattered Clouds
5:55 AM 44.6 °F 42.2 °F 39.2 °F 81% 30.07 in 10.0 mi WNW 4.6 mph - N/A   Scattered Clouds
6:15 AM 44.6 °F 41.4 °F 39.2 °F 81% 30.07 in 10.0 mi West 5.8 mph - N/A   Scattered Clouds
6:35 AM 44.6 °F 42.2 °F 39.2 °F 81% 30.08 in 10.0 mi West 4.6 mph - N/A   Clear
6:55 AM 50.0 °F - 41.0 °F 71% 30.08 in 10.0 mi WNW 3.5 mph - N/A   Clear
7:15 AM 53.6 °F - 41.0 °F 62% 30.08 in 10.0 mi WNW 5.8 mph - N/A   Clear
7:35 AM 55.4 °F - 41.0 °F 58% 30.08 in 10.0 mi WNW 3.5 mph - N/A   Clear
7:55 AM 59.0 °F - 42.8 °F 55% 30.08 in 10.0 mi WNW 3.5 mph - N/A   Clear
8:15 AM 57.2 °F - 42.8 °F 59% 30.08 in 10.0 mi Calm Calm - N/A   Clear
8:35 AM 60.8 °F - 39.2 °F 45% 30.08 in 10.0 mi Calm Calm - N/A   Clear
8:55 AM 62.6 °F - 37.4 °F 39% 30.08 in 10.0 mi East 3.5 mph - N/A   Clear
9:15 AM 66.2 °F - 37.4 °F 35% 30.08 in 10.0 mi ESE 4.6 mph - N/A   Clear
9:35 AM 69.8 °F - 35.6 °F 28% 30.08 in 10.0 mi East 8.1 mph - N/A   Clear
9:55 AM 71.6 °F - 35.6 °F 27% 30.08 in 10.0 mi East 4.6 mph - N/A   Clear
10:15 AM 73.4 °F - 35.6 °F 25% 30.07 in 10.0 mi Calm Calm - N/A   Clear
10:35 AM 75.2 °F - 35.6 °F 24% 30.07 in 10.0 mi ENE 5.8 mph - N/A   Clear
10:55 AM 77.0 °F - 33.8 °F 21% 30.07 in 10.0 mi Calm Calm - N/A   Clear
11:15 AM 77.0 °F - 35.6 °F 22% 30.06 in 10.0 mi SE 3.5 mph - N/A   Clear
11:35 AM 78.8 °F - 33.8 °F 20% 30.06 in 10.0 mi WSW 6.9 mph - N/A   Clear
11:55 AM 80.6 °F - 32.0 °F 17% 30.05 in 10.0 mi WSW 10.4 mph 23.0 mph N/A   Clear
12:15 PM 80.6 °F - 32.0 °F 17% 30.05 in 10.0 mi WSW 17.3 mph 26.5 mph N/A   Scattered Clouds
12:35 PM 78.8 °F - 32.0 °F 18% 30.05 in 10.0 mi SW 8.1 mph - N/A   Scattered Clouds
12:55 PM 80.6 °F - 30.2 °F 16% 30.04 in 10.0 mi SW 18.4 mph 24.2 mph N/A   Clear
1:15 PM 80.6 °F - 30.2 °F 16% 30.04 in 10.0 mi SW 13.8 mph 23.0 mph N/A   Clear
1:35 PM 82.4 °F - 30.2 °F 15% 30.04 in 10.0 mi SW 15.0 mph 28.8 mph N/A   Clear
1:55 PM 82.4 °F - 30.2 °F 15% 30.03 in 10.0 mi SW 18.4 mph 28.8 mph N/A   Clear
2:15 PM 84.2 °F - 28.4 °F 13% 30.03 in 10.0 mi SW 23.0 mph 31.1 mph N/A   Clear
2:35 PM 86.0 °F - 28.4 °F 12% 30.02 in 10.0 mi SSW 26.5 mph 34.5 mph N/A   Clear
2:55 PM 84.2 °F - 28.4 °F 13% 30.01 in 10.0 mi SW 20.7 mph 28.8 mph N/A   Clear
3:15 PM 86.0 °F - 28.4 °F 12% 30.01 in 10.0 mi WSW 19.6 mph 36.8 mph N/A   Scattered Clouds
3:35 PM 80.6 °F - 28.4 °F 15% 30.01 in 10.0 mi SW 13.8 mph 26.5 mph N/A   Scattered Clouds
3:55 PM 80.6 °F - 30.2 °F 16% 30.01 in 10.0 mi WSW 17.3 mph 24.2 mph N/A   Scattered Clouds
4:15 PM 80.6 °F - 30.2 °F 16% 30.00 in 10.0 mi West 12.7 mph 20.7 mph N/A   Scattered Clouds
4:35 PM 82.4 °F - 30.2 °F 15% 30.00 in 10.0 mi WSW 13.8 mph 20.7 mph N/A   Scattered Clouds
4:55 PM 80.6 °F - 30.2 °F 16% 30.00 in 10.0 mi WSW 17.3 mph 26.5 mph N/A   Clear
5:15 PM 80.6 °F - 26.6 °F 14% 30.00 in 10.0 mi SW 18.4 mph 25.3 mph N/A   Clear
5:35 PM 80.6 °F - 28.4 °F 15% 30.00 in 10.0 mi WSW 13.8 mph 20.7 mph N/A   Clear
5:55 PM 80.6 °F - 28.4 °F 15% 29.99 in 10.0 mi SW 16.1 mph 23.0 mph N/A   Clear
6:15 PM 78.8 °F - 26.6 °F 15% 30.00 in 10.0 mi WSW 19.6 mph 27.6 mph N/A   Clear
6:35 PM 78.8 °F - 26.6 °F 15% 29.99 in 10.0 mi West 12.7 mph - N/A   Clear
6:55 PM 77.0 °F - 26.6 °F 16% 29.98 in 10.0 mi West 12.7 mph 20.7 mph N/A   Clear
7:15 PM 77.0 °F - 26.6 °F 16% 29.99 in 10.0 mi WSW 10.4 mph 21.9 mph N/A   Clear
7:35 PM 77.0 °F - 26.6 °F 16% 29.99 in 10.0 mi West 11.5 mph - N/A   Clear
7:55 PM 75.2 °F - 26.6 °F 17% 29.99 in 10.0 mi West 8.1 mph - N/A   Clear
8:15 PM 75.2 °F - 23.0 °F 14% 29.99 in 10.0 mi SW 10.4 mph - N/A   Clear
8:35 PM 73.4 °F - 21.2 °F 14% 29.99 in 10.0 mi SW 5.8 mph - N/A   Clear
8:55 PM 69.8 °F - 21.2 °F 16% 30.00 in 10.0 mi WSW 6.9 mph - N/A   Clear
9:15 PM 66.2 °F - 21.2 °F 18% 30.00 in 10.0 mi West 3.5 mph - N/A   Clear
9:35 PM 60.8 °F - 26.6 °F 27% 30.00 in 10.0 mi Calm Calm - N/A   Clear
9:55 PM 59.0 °F - 30.2 °F 34% 30.01 in 10.0 mi Calm Calm - N/A   Clear
10:15 PM 57.2 °F - 28.4 °F 33% 30.01 in 10.0 mi Calm Calm - N/A   Clear
10:35 PM 55.4 °F - 28.4 °F 36% 30.02 in 10.0 mi Calm Calm - N/A   Clear
10:55 PM 55.4 °F - 28.4 °F 36% 30.02 in 10.0 mi Calm Calm - N/A   Scattered Clouds
11:15 PM 55.4 °F - 28.4 °F 36% 30.03 in 10.0 mi Calm Calm - N/A   Scattered Clouds
11:35 PM 51.8 °F - 28.4 °F 41% 30.03 in 10.0 mi Calm Calm - N/A   Scattered Clouds
11:55 PM 53.6 °F - 28.4 °F 38% 30.03 in 10.0 mi Calm Calm - N/A   Clear